Watertown, SD

8:17 PM CDT on May 25, 2017 (GMT -0500)
Watertown Municipal

Weather History for KATY - July, 2013

Change the Weather History Date:

Thursday, July 11, 2013

  Actual Average Record
Temperature  
Mean Temperature 72 °F 71 °F  
Max Temperature 83 °F 83 °F 104 °F (1930)
Min Temperature 61 °F 60 °F 44 °F (1922)
Degree Days  
Heating Degree Days 0 0  
Month to date heating degree days 0 8  
Since 1 June heating degree days 88 86  
Since 1 July heating degree days 0 8  
Cooling Degree Days 7 7  
Month to date cooling degree days 77 70  
Year to date cooling degree days 188 188  
Since 1 June cooling degree days 166 166  
Growing Degree Days 22 (Base 50)    
Moisture  
Dew Point 60 °F    
Average Humidity 65    
Maximum Humidity 78    
Minimum Humidity 51    
Precipitation  
Precipitation 0.00 in 0.10 in 1.26 in (1966)
Month to date precipitation 0.76 1.10  
Year to date precipitation 14.26 11.53  
Sea Level Pressure  
Sea Level Pressure 29.97 in    
Wind  
Wind Speed 15 mph (SSE)    
Max Wind Speed 26 mph    
Max Gust Speed 33 mph    
Visibility 10 miles    
Events      
T = Trace of Precipitation, MM = Missing Value Source: NWS Daily Summary

Daily Weather History Graph

Daily Weather History Graph

Search for Another Location

Airport or City:

Trip Planner

Search our weather history database for the weather conditions in past years. The results will help you decide how hot, cold, wet, or windy it might be!

Date:

Astronomy

Jul. 11, 2013 Rise Set
Actual Time 5:53 AM CDT 9:14 PM CDT
Civil Twilight 5:17 AM CDT 9:50 PM CDT
Nautical Twilight 4:29 AM CDT 10:37 PM CDT
Astronomical Twilight 3:30 AM CDT 11:37 PM CDT
Moon 9:23 AM CDT (7/11) 10:43 PM CDT (7/11)
Length of Visible Light 16h 33m
Length of Day
15h 21m
Waxing Crescent, 11% of the Moon is Illuminated
Jul 11
Waxing Crescent
Jul 15
First Quarter
Jul 22
Full
Jul 29
Last Quarter
Aug 6
New

Hourly Weather History & Observations

Time (CDT) Temp. Heat Index Dew Point Humidity Pressure Visibility Wind Dir Wind Speed Gust Speed Precip Events Conditions
12:53 AM 63.0 °F - 55.0 °F 75% 30.05 in 10.0 mi SE 3.5 mph - N/A   Clear
1:53 AM 63.0 °F - 55.0 °F 75% 30.05 in 10.0 mi SE 3.5 mph - N/A   Clear
2:53 AM 62.1 °F - 55.0 °F 78% 30.05 in 10.0 mi ESE 4.6 mph - N/A   Clear
3:53 AM 62.1 °F - 55.0 °F 78% 30.05 in 10.0 mi SSE 4.6 mph - N/A   Clear
4:53 AM 63.0 °F - 54.0 °F 72% 30.04 in 10.0 mi SSE 10.4 mph - N/A   Clear
5:53 AM 61.0 °F - 54.0 °F 78% 30.05 in 10.0 mi SE 8.1 mph - N/A   Scattered Clouds
6:53 AM 62.1 °F - 55.0 °F 78% 30.06 in 9.0 mi SSE 9.2 mph - N/A   Overcast
7:53 AM 64.9 °F - 55.9 °F 73% 30.05 in 10.0 mi SSE 11.5 mph - N/A   Mostly Cloudy
8:53 AM 68.0 °F - 57.0 °F 68% 30.02 in 10.0 mi SSE 15.0 mph 24.2 mph N/A   Partly Cloudy
9:53 AM 73.0 °F - 57.9 °F 59% 30.02 in 10.0 mi South 18.4 mph 23.0 mph N/A   Clear
10:53 AM 75.9 °F - 59.0 °F 56% 29.99 in 10.0 mi South 20.7 mph 27.6 mph N/A   Clear
11:53 AM 78.1 °F - 62.1 °F 58% 29.98 in 10.0 mi South 18.4 mph 28.8 mph N/A   Clear
12:53 PM 79.0 °F - 62.1 °F 56% 29.96 in 10.0 mi South 17.3 mph 27.6 mph N/A   Clear
1:53 PM 81.0 °F 82.2 °F 63.0 °F 54% 29.94 in 10.0 mi South 20.7 mph 27.6 mph N/A   Clear
2:53 PM 82.0 °F 83.1 °F 63.0 °F 52% 29.93 in 10.0 mi South 21.9 mph 29.9 mph N/A   Clear
3:53 PM 82.0 °F 83.1 °F 63.0 °F 52% 29.92 in 10.0 mi SSE 18.4 mph 28.8 mph N/A   Clear
4:53 PM 82.0 °F 83.4 °F 64.0 °F 54% 29.91 in 10.0 mi South 19.6 mph 27.6 mph N/A   Clear
5:53 PM 82.0 °F 83.4 °F 64.0 °F 54% 29.90 in 10.0 mi South 18.4 mph 28.8 mph N/A   Clear
6:53 PM 81.0 °F 82.5 °F 64.0 °F 56% 29.89 in 10.0 mi South 18.4 mph 26.5 mph N/A   Clear
7:53 PM 80.1 °F 81.5 °F 63.0 °F 56% 29.87 in 10.0 mi South 15.0 mph 23.0 mph N/A   Clear
8:53 PM 77.0 °F - 64.0 °F 64% 29.86 in 10.0 mi South 17.3 mph - N/A   Clear
9:53 PM 75.9 °F - 62.1 °F 62% 29.86 in 10.0 mi South 17.3 mph - N/A   Clear
10:53 PM 73.0 °F - 63.0 °F 71% 29.87 in 10.0 mi South 13.8 mph - N/A   Clear
11:53 PM 73.0 °F - 63.0 °F 71% 29.86 in 10.0 mi South 17.3 mph 26.5 mph N/A   Clear